Left ArrowRight Arrow

40.92501, -98.34201

Hourly Observations for June 22, 2024

Temp ( °F °C ) Dew Point ( °F °C ) Humidity (%) Winds ( mph kmh ) Pressure ( in mb ) Visibility ( mi km ) Precip ( " mm )
12:01 am 00:01 Cloudy with Nearby Thunderstorms 69 20.6 68 20 96 96 NE 9 15 29.88 1012 4 6 0.09 2.29
12:22 am 00:22 Cloudy with Nearby Thunderstorms 69 20.6 68 20 96 96 NNE 10 17 29.89 1012 10 16 0.09 2.29
12:32 am 00:32 Cloudy 69 20.6 68 20 96 96 ENE 10 17 29.88 1012 10 16 0.09 2.29
12:53 am 00:53 Cloudy 69 20.6 68 20 96 96 E 12 19 29.88 1012 10 16 0.09 2.29
1:53 am 01:53 Partly Cloudy 70 21.1 68 20 93 93 ESE 9 15 29.85 1011 10 16 0.00 0.00
2:53 am 02:53 Clear 70 21.1 68 20 93 93 SE 10 17 29.83 1010 10 16 0.00 0.00
3:53 am 03:53 Clear 70 21.1 67 19.4 90 90 ESE 8 13 29.81 1010 10 16 0.00 0.00
4:53 am 04:53 Clear 70 21.1 68 20 93 93 SSE 10 17 29.79 1009 10 16 0.00 0.00
5:53 am 05:53 Clear 71 21.7 68 20 90 90 S 6 9 29.78 1009 10 16 0.00 0.00
6:43 am 06:43 Mostly Sunny 72 22.2 68 20 87 87 S 9 15 29.74 1007 10 16 0.00 0.00
6:53 am 06:53 Partly Cloudy 72 22.2 68 20 87 87 S 8 13 29.76 1008 9 14 0.00 0.00
7:04 am 07:04 Mostly Cloudy 72 22.2 68 20 87 87 S 8 13 29.73 1007 10 16 0.00 0.00
7:31 am 07:31 Partly Cloudy 74 23.3 69 20.6 85 85 SSW 5 7 29.73 1007 10 16 0.00 0.00
7:53 am 07:53 Mostly Cloudy 75 23.9 70 21.1 84 84 S 8 13 29.77 1008 10 16 0.00 0.00
8:35 am 08:35 Mostly Sunny 78 25.6 71 21.7 79 79 SW 9 15 29.73 1007 10 16 0.00 0.00
8:53 am 08:53 Mostly Sunny 77 25 71 21.7 82 82 WNW 8 13 29.79 1009 10 16 0.00 0.00
9:53 am 09:53 Partly Cloudy 80 26.7 71 21.7 74 74 WNW 16 26 29.81 1009 10 16 0.00 0.00
10:34 am 10:34 Mostly Cloudy 78 25.6 70 21.1 76 76 NW 16 26 29.76 1008 10 16 0.00 0.00
10:53 am 10:53 Mostly Cloudy 78 25.6 70 21.1 76 76 NNW 16 26 29.83 1010 10 16 0.00 0.00
11:53 am 11:53 Cloudy with Light Rain 79 26.1 70 21.1 74 74 NNW 16 26 29.85 1011 10 16 0.01 0.13
12:53 pm 12:53 Mostly Cloudy 80 26.7 70 21.1 71 71 NNW 18 30 29.86 1011 10 16 0.01 0.13
1:53 pm 13:53 Cloudy 81 27.2 69 20.6 67 67 N 15 24 29.87 1012 10 16 0.00 0.00
2:20 pm 14:20 Mostly Cloudy 83 28.3 70 21.1 65 65 NNW 14 22 29.79 1009 10 16 0.00 0.00
2:53 pm 14:53 Mostly Cloudy 84 28.9 70 21.1 63 63 NNW 15 24 29.86 1011 10 16 0.00 0.00
3:53 pm 15:53 Mostly Sunny 85 29.4 69 20.6 59 59 NNW 15 24 29.86 1011 10 16 0.00 0.00
4:53 pm 16:53 Sunny 84 28.9 67 19.4 57 57 NNW 13 20 29.87 1011 10 16 0.00 0.00
5:53 pm 17:53 Sunny 87 30.6 67 19.4 51 51 NNW 14 22 29.87 1011 10 16 0.00 0.00
6:53 pm 18:53 Sunny 86 30 66 18.9 51 51 NNW 13 20 29.88 1012 10 16 0.00 0.00
7:53 pm 19:53 Sunny 82 27.8 68 20 63 63 N 7 11 29.89 1012 10 16 0.00 0.00
8:53 pm 20:53 Sunny 76 24.4 68 20 77 77 NNE 7 11 29.90 1013 10 16 0.00 0.00
9:53 pm 21:53 Clear 71 21.7 68 20 90 90 NNE 5 7 29.93 1013 10 16 0.00 0.00
10:53 pm 22:53 Clear 69 20.6 66 18.9 90 90 N 7 11 29.95 1014 10 16 0.00 0.00
11:53 pm 23:53 Clear 68 20 66 18.9 93 93 NNE 5 7 29.95 1014 10 16 0.00 0.00

Powered by Vaisala Xweather